Time,TemperatureF,DewpointF,PressureIn,WindDirection,WindDirectionDegrees,WindSpeedMPH,WindSpeedGustMPH,Humidity,HourlyPrecipIn,Conditions,Clouds,dailyrainin,SoftwareType,DateUTC
2013-08-25 00:01:00,64.8,57.7,30.32,ESE,112,0.0,0.0,78,0.00,,,0.00,WUHU21623XXSP,2013-08-25 04:01:00,
2013-08-25 00:06:00,64.8,57.4,30.32,ESE,112,0.0,0.0,77,0.00,,,0.00,WUHU21623XXSP,2013-08-25 04:06:00,
2013-08-25 00:11:00,64.8,57.4,30.32,ESE,112,0.0,0.0,77,0.00,,,0.00,WUHU21623XXSP,2013-08-25 04:11:00,
2013-08-25 00:16:00,64.6,57.9,30.32,ESE,112,0.0,0.0,79,0.00,,,0.00,WUHU21623XXSP,2013-08-25 04:16:00,
2013-08-25 00:21:00,64.6,57.9,30.32,ESE,112,0.0,0.0,79,0.00,,,0.00,WUHU21623XXSP,2013-08-25 04:21:00,
2013-08-25 00:26:00,64.4,57.4,30.32,ESE,112,0.0,0.0,78,0.00,,,0.00,WUHU21623XXSP,2013-08-25 04:26:00,
2013-08-25 00:31:00,64.4,57.0,30.32,ESE,112,0.0,0.0,77,0.00,,,0.00,WUHU21623XXSP,2013-08-25 04:31:00,
2013-08-25 00:36:00,64.6,57.2,30.31,ESE,112,0.0,0.0,77,0.00,,,0.00,WUHU21623XXSP,2013-08-25 04:36:00,
2013-08-25 00:41:00,64.6,56.8,30.31,ESE,112,0.0,0.0,76,0.00,,,0.00,WUHU21623XXSP,2013-08-25 04:41:00,
2013-08-25 00:46:00,64.4,57.0,30.32,ESE,112,0.0,0.0,77,0.00,,,0.00,WUHU21623XXSP,2013-08-25 04:46:00,
2013-08-25 00:51:00,64.2,56.8,30.31,ESE,112,0.0,0.0,77,0.00,,,0.00,WUHU21623XXSP,2013-08-25 04:51:00,
2013-08-25 00:56:00,64.2,56.8,30.32,ESE,112,0.0,0.0,77,0.00,,,0.00,WUHU21623XXSP,2013-08-25 04:56:00,
2013-08-25 01:01:00,64.2,56.8,30.32,ESE,112,0.0,0.0,77,0.00,,,0.00,WUHU21623XXSP,2013-08-25 05:01:00,
2013-08-25 01:06:00,64.0,57.0,30.32,ESE,112,0.0,0.0,78,0.00,,,0.00,WUHU21623XXSP,2013-08-25 05:06:00,
2013-08-25 01:11:00,64.0,56.7,30.32,ESE,112,0.0,0.0,77,0.00,,,0.00,WUHU21623XXSP,2013-08-25 05:11:00,
2013-08-25 01:16:00,64.0,56.7,30.32,ESE,112,0.0,0.0,77,0.00,,,0.00,WUHU21623XXSP,2013-08-25 05:16:00,
2013-08-25 01:21:00,64.0,56.3,30.32,ESE,112,0.0,0.0,76,0.00,,,0.00,WUHU21623XXSP,2013-08-25 05:21:00,
2013-08-25 01:26:00,64.0,56.3,30.32,ESE,112,0.0,0.0,76,0.00,,,0.00,WUHU21623XXSP,2013-08-25 05:26:00,
2013-08-25 01:31:00,64.2,56.1,30.32,ESE,112,0.0,0.0,75,0.00,,,0.00,WUHU21623XXSP,2013-08-25 05:31:00,
2013-08-25 01:36:00,64.2,56.1,30.32,ESE,112,0.0,0.0,75,0.00,,,0.00,WUHU21623XXSP,2013-08-25 05:36:00,
2013-08-25 01:41:00,64.2,56.1,30.31,ESE,112,0.0,0.0,75,0.00,,,0.00,WUHU21623XXSP,2013-08-25 05:41:00,
2013-08-25 01:46:00,64.2,56.1,30.32,ESE,112,0.0,0.0,75,0.00,,,0.00,WUHU21623XXSP,2013-08-25 05:46:00,
2013-08-25 01:51:00,64.0,55.9,30.31,ESE,112,0.0,0.0,75,0.00,,,0.00,WUHU21623XXSP,2013-08-25 05:51:00,
2013-08-25 01:56:00,64.0,55.9,30.31,ESE,112,0.0,0.0,75,0.00,,,0.00,WUHU21623XXSP,2013-08-25 05:56:00,
2013-08-25 02:01:00,63.7,55.9,30.31,ESE,112,0.0,0.0,76,0.00,,,0.00,WUHU21623XXSP,2013-08-25 06:01:00,
2013-08-25 02:06:00,63.5,55.8,30.31,ESE,112,0.0,0.0,76,0.00,,,0.00,WUHU21623XXSP,2013-08-25 06:06:00,
2013-08-25 02:11:00,63.3,55.9,30.31,ESE,112,0.0,0.0,77,0.00,,,0.00,WUHU21623XXSP,2013-08-25 06:11:00,
2013-08-25 02:16:00,63.1,56.1,30.31,ESE,112,0.0,0.0,78,0.00,,,0.00,WUHU21623XXSP,2013-08-25 06:16:00,
2013-08-25 02:21:00,63.1,56.1,30.31,ESE,112,0.0,0.0,78,0.00,,,0.00,WUHU21623XXSP,2013-08-25 06:21:00,
2013-08-25 02:26:00,62.8,56.1,30.31,ESE,112,0.0,0.0,79,0.00,,,0.00,WUHU21623XXSP,2013-08-25 06:26:00,
2013-08-25 02:31:00,62.4,56.5,30.31,ESE,112,0.0,0.0,81,0.00,,,0.00,WUHU21623XXSP,2013-08-25 06:31:00,
2013-08-25 02:36:00,61.7,56.2,30.31,ESE,112,0.0,0.0,82,0.00,,,0.00,WUHU21623XXSP,2013-08-25 06:36:00,
2013-08-25 02:41:00,61.3,56.1,30.32,ESE,112,0.0,0.0,83,0.00,,,0.00,WUHU21623XXSP,2013-08-25 06:41:00,
2013-08-25 02:46:00,61.2,56.1,30.32,ESE,112,0.0,0.0,84,0.00,,,0.00,WUHU21623XXSP,2013-08-25 06:46:00,
2013-08-25 02:51:00,61.2,56.3,30.32,ESE,112,0.0,0.0,84,0.00,,,0.00,WUHU21623XXSP,2013-08-25 06:51:00,
2013-08-25 02:56:00,61.2,56.3,30.32,ESE,112,0.0,0.0,84,0.00,,,0.00,WUHU21623XXSP,2013-08-25 06:56:00,
2013-08-25 03:01:00,61.2,56.3,30.32,ESE,112,0.0,0.0,85,0.00,,,0.00,WUHU21623XXSP,2013-08-25 07:01:00,
2013-08-25 03:06:00,61.2,56.6,30.32,ESE,112,0.0,0.0,85,0.00,,,0.00,WUHU21623XXSP,2013-08-25 07:06:00,
2013-08-25 03:11:00,61.3,56.8,30.32,ESE,112,0.0,0.0,85,0.00,,,0.00,WUHU21623XXSP,2013-08-25 07:11:00,
2013-08-25 03:16:00,61.3,56.8,30.32,ESE,112,0.0,0.0,85,0.00,,,0.00,WUHU21623XXSP,2013-08-25 07:16:00,
2013-08-25 03:21:00,61.3,56.8,30.32,ESE,112,0.0,0.0,85,0.00,,,0.00,WUHU21623XXSP,2013-08-25 07:21:00,
2013-08-25 03:26:00,61.3,56.8,30.32,ESE,112,0.0,0.0,85,0.00,,,0.00,WUHU21623XXSP,2013-08-25 07:26:00,
2013-08-25 03:31:00,61.3,56.8,30.32,ESE,112,0.0,0.0,85,0.00,,,0.00,WUHU21623XXSP,2013-08-25 07:31:00,
2013-08-25 03:36:00,61.3,56.5,30.33,ESE,112,0.0,0.0,84,0.00,,,0.00,WUHU21623XXSP,2013-08-25 07:36:00,
2013-08-25 03:41:00,61.3,56.5,30.33,ESE,112,0.0,0.0,84,0.00,,,0.00,WUHU21623XXSP,2013-08-25 07:41:00,
2013-08-25 03:46:00,61.3,56.5,30.33,ESE,112,0.0,0.0,84,0.00,,,0.00,WUHU21623XXSP,2013-08-25 07:46:00,
2013-08-25 03:51:00,61.2,56.3,30.33,ESE,112,0.0,0.0,84,0.00,,,0.00,WUHU21623XXSP,2013-08-25 07:51:00,
2013-08-25 03:56:00,61.2,56.3,30.33,ESE,112,0.0,0.0,84,0.00,,,0.00,WUHU21623XXSP,2013-08-25 07:56:00,
2013-08-25 04:01:00,61.3,56.5,30.33,ESE,112,0.0,0.0,84,0.00,,,0.00,WUHU21623XXSP,2013-08-25 08:01:00,
2013-08-25 04:06:00,61.2,56.3,30.33,ESE,112,0.0,0.0,84,0.00,,,0.00,WUHU21623XXSP,2013-08-25 08:06:00,
2013-08-25 04:11:00,61.2,56.0,30.33,ESE,112,0.0,0.0,83,0.00,,,0.00,WUHU21623XXSP,2013-08-25 08:11:00,
2013-08-25 04:16:00,61.0,55.8,30.33,ESE,112,0.0,0.0,83,0.00,,,0.00,WUHU21623XXSP,2013-08-25 08:16:00,
2013-08-25 04:21:00,61.0,55.8,30.34,ESE,112,0.0,0.0,83,0.00,,,0.00,WUHU21623XXSP,2013-08-25 08:21:00,
2013-08-25 04:26:00,61.0,55.8,30.33,ESE,112,0.0,0.0,83,0.00,,,0.00,WUHU21623XXSP,2013-08-25 08:26:00,
2013-08-25 04:31:00,60.8,55.7,30.34,ESE,112,0.0,0.0,83,0.00,,,0.00,WUHU21623XXSP,2013-08-25 08:31:00,
2013-08-25 04:36:00,60.6,55.5,30.34,ESE,112,0.0,0.0,83,0.00,,,0.00,WUHU21623XXSP,2013-08-25 08:36:00,
2013-08-25 04:41:00,60.6,55.5,30.34,ESE,112,0.0,0.0,83,0.00,,,0.00,WUHU21623XXSP,2013-08-25 08:41:00,
2013-08-25 04:46:00,60.6,55.5,30.34,ESE,112,0.0,0.0,83,0.00,,,0.00,WUHU21623XXSP,2013-08-25 08:46:00,
2013-08-25 04:51:00,60.6,55.5,30.34,ESE,112,0.0,0.0,83,0.00,,,0.00,WUHU21623XXSP,2013-08-25 08:51:00,
2013-08-25 04:56:00,60.6,55.5,30.34,ESE,112,0.0,0.0,83,0.00,,,0.00,WUHU21623XXSP,2013-08-25 08:56:00,
2013-08-25 05:01:00,60.6,55.5,30.35,ESE,112,0.0,0.0,83,0.00,,,0.00,WUHU21623XXSP,2013-08-25 09:01:00,
2013-08-25 05:06:00,60.6,55.5,30.35,ESE,112,0.0,0.0,83,0.00,,,0.00,WUHU21623XXSP,2013-08-25 09:06:00,
2013-08-25 05:11:00,60.4,55.3,30.35,ESE,112,0.0,0.0,83,0.00,,,0.00,WUHU21623XXSP,2013-08-25 09:11:00,
2013-08-25 05:16:00,60.4,55.3,30.36,ESE,112,0.0,0.0,83,0.00,,,0.00,WUHU21623XXSP,2013-08-25 09:16:00,
2013-08-25 05:21:00,60.4,55.3,30.36,ESE,112,0.0,0.0,83,0.00,,,0.00,WUHU21623XXSP,2013-08-25 09:21:00,
2013-08-25 05:26:00,60.4,55.3,30.36,ESE,112,0.0,0.0,83,0.00,,,0.00,WUHU21623XXSP,2013-08-25 09:26:00,
2013-08-25 05:31:00,60.4,55.3,30.36,ESE,112,0.0,0.0,83,0.00,,,0.00,WUHU21623XXSP,2013-08-25 09:31:00,
2013-08-25 05:36:00,60.1,54.9,30.36,ESE,112,0.0,0.0,83,0.00,,,0.00,WUHU21623XXSP,2013-08-25 09:36:00,
2013-08-25 05:41:00,60.1,54.9,30.36,ESE,112,0.0,0.0,83,0.00,,,0.00,WUHU21623XXSP,2013-08-25 09:41:00,
2013-08-25 05:46:00,60.1,54.9,30.36,ESE,112,0.0,0.0,83,0.00,,,0.00,WUHU21623XXSP,2013-08-25 09:46:00,
2013-08-25 05:51:00,59.9,54.8,30.36,ESE,112,0.0,0.0,83,0.00,,,0.00,WUHU21623XXSP,2013-08-25 09:51:00,
2013-08-25 05:56:00,59.9,54.8,30.36,ESE,112,0.0,0.0,83,0.00,,,0.00,WUHU21623XXSP,2013-08-25 09:56:00,
2013-08-25 06:01:00,59.7,54.6,30.36,ESE,112,0.0,0.0,83,0.00,,,0.00,WUHU21623XXSP,2013-08-25 10:01:00,
2013-08-25 06:06:00,59.7,54.6,30.36,ESE,112,0.0,0.0,83,0.00,,,0.00,WUHU21623XXSP,2013-08-25 10:06:00,
2013-08-25 06:11:00,59.7,54.6,30.37,ESE,112,0.0,0.0,83,0.00,,,0.00,WUHU21623XXSP,2013-08-25 10:11:00,
2013-08-25 06:16:00,59.7,54.6,30.37,ESE,112,0.0,0.0,83,0.00,,,0.00,WUHU21623XXSP,2013-08-25 10:16:00,
2013-08-25 06:21:00,59.7,54.6,30.37,ESE,112,0.0,0.0,83,0.00,,,0.00,WUHU21623XXSP,2013-08-25 10:21:00,
2013-08-25 06:26:00,59.7,54.6,30.37,ESE,112,0.0,0.0,83,0.00,,,0.00,WUHU21623XXSP,2013-08-25 10:26:00,
2013-08-25 06:31:00,59.7,54.6,30.37,ESE,112,0.0,0.0,83,0.00,,,0.00,WUHU21623XXSP,2013-08-25 10:31:00,
2013-08-25 06:36:00,59.5,54.4,30.37,ESE,112,0.0,0.0,83,0.00,,,0.00,WUHU21623XXSP,2013-08-25 10:36:00,
2013-08-25 06:41:00,59.5,54.4,30.38,ESE,112,0.0,0.0,83,0.00,,,0.00,WUHU21623XXSP,2013-08-25 10:41:00,
2013-08-25 06:46:00,59.5,54.4,30.38,ESE,112,0.0,0.0,83,0.00,,,0.00,WUHU21623XXSP,2013-08-25 10:46:00,
2013-08-25 06:51:00,59.5,54.4,30.38,ESE,112,0.0,0.0,83,0.00,,,0.00,WUHU21623XXSP,2013-08-25 10:51:00,
2013-08-25 06:56:00,59.5,54.4,30.38,ESE,112,0.0,0.0,83,0.00,,,0.00,WUHU21623XXSP,2013-08-25 10:56:00,
2013-08-25 07:01:00,59.5,54.4,30.39,ESE,112,0.0,0.0,83,0.00,,,0.00,WUHU21623XXSP,2013-08-25 11:01:00,
2013-08-25 07:06:00,59.4,54.2,30.39,ESE,112,0.0,0.0,83,0.00,,,0.00,WUHU21623XXSP,2013-08-25 11:06:00,
2013-08-25 07:11:00,59.4,54.2,30.38,ESE,112,0.0,0.0,83,0.00,,,0.00,WUHU21623XXSP,2013-08-25 11:11:00,
2013-08-25 07:16:00,59.4,54.2,30.39,ESE,112,0.0,0.0,83,0.00,,,0.00,WUHU21623XXSP,2013-08-25 11:16:00,
2013-08-25 07:21:00,59.4,54.2,30.38,ESE,112,0.0,0.0,83,0.00,,,0.00,WUHU21623XXSP,2013-08-25 11:21:00,
2013-08-25 07:26:00,59.5,54.4,30.38,ESE,112,0.0,0.0,83,0.00,,,0.00,WUHU21623XXSP,2013-08-25 11:26:00,
2013-08-25 07:31:00,59.5,54.4,30.38,ESE,112,0.0,0.0,83,0.00,,,0.00,WUHU21623XXSP,2013-08-25 11:31:00,
2013-08-25 07:36:00,59.7,54.9,30.38,ESE,112,0.0,0.0,84,0.00,,,0.00,WUHU21623XXSP,2013-08-25 11:36:00,
2013-08-25 07:41:00,60.1,54.9,30.38,ESE,112,0.0,0.0,83,0.00,,,0.00,WUHU21623XXSP,2013-08-25 11:41:00,
2013-08-25 07:46:00,60.6,55.3,30.38,ESE,112,0.0,0.0,83,0.00,,,0.00,WUHU21623XXSP,2013-08-25 11:46:00,
2013-08-25 07:51:00,61.2,55.8,30.39,ESE,112,0.0,0.0,83,0.00,,,0.00,WUHU21623XXSP,2013-08-25 11:51:00,
2013-08-25 07:56:00,61.5,56.0,30.39,ESE,112,0.0,0.0,82,0.00,,,0.00,WUHU21623XXSP,2013-08-25 11:56:00,
2013-08-25 08:01:00,61.7,55.8,30.39,ESE,112,0.0,0.0,81,0.00,,,0.00,WUHU21623XXSP,2013-08-25 12:01:00,
2013-08-25 08:06:00,61.9,56.0,30.39,ESE,112,0.0,0.0,81,0.00,,,0.00,WUHU21623XXSP,2013-08-25 12:06:00,
2013-08-25 08:11:00,62.2,56.0,30.39,ESE,112,0.0,0.0,80,0.00,,,0.00,WUHU21623XXSP,2013-08-25 12:11:00,
2013-08-25 08:16:00,63.0,56.7,30.40,ESE,112,0.0,0.0,80,0.00,,,0.00,WUHU21623XXSP,2013-08-25 12:16:00,
2013-08-25 08:21:00,63.5,56.8,30.40,ESE,112,0.0,0.0,79,0.00,,,0.00,WUHU21623XXSP,2013-08-25 12:21:00,
2013-08-25 08:26:00,64.2,57.6,30.40,ESE,112,0.0,0.0,79,0.00,,,0.00,WUHU21623XXSP,2013-08-25 12:26:00,
2013-08-25 08:31:00,65.5,58.1,30.40,ESE,112,0.0,0.0,77,0.00,,,0.00,WUHU21623XXSP,2013-08-25 12:31:00,
2013-08-25 08:36:00,66.4,58.6,30.40,ESE,112,0.0,0.0,76,0.00,,,0.00,WUHU21623XXSP,2013-08-25 12:36:00,
2013-08-25 08:41:00,67.1,58.9,30.40,ESE,112,0.0,0.0,75,0.00,,,0.00,WUHU21623XXSP,2013-08-25 12:41:00,
2013-08-25 08:46:00,67.8,59.3,30.40,ESE,112,0.0,0.0,74,0.00,,,0.00,WUHU21623XXSP,2013-08-25 12:46:00,
2013-08-25 08:51:00,68.4,59.4,30.39,ESE,112,0.0,0.0,73,0.00,,,0.00,WUHU21623XXSP,2013-08-25 12:51:00,
2013-08-25 08:56:00,69.3,59.8,30.39,ESE,112,0.0,0.0,72,0.00,,,0.00,WUHU21623XXSP,2013-08-25 12:56:00,
2013-08-25 09:01:00,70.2,59.9,30.39,ESE,112,0.0,0.0,70,0.00,,,0.00,WUHU21623XXSP,2013-08-25 13:01:00,
2013-08-25 09:06:00,70.9,60.6,30.39,ESE,112,0.0,0.0,70,0.00,,,0.00,WUHU21623XXSP,2013-08-25 13:06:00,
2013-08-25 09:11:00,71.8,60.6,30.39,ESE,112,0.0,0.0,68,0.00,,,0.00,WUHU21623XXSP,2013-08-25 13:11:00,
2013-08-25 09:16:00,72.7,61.1,30.39,ESE,112,0.0,0.0,67,0.00,,,0.00,WUHU21623XXSP,2013-08-25 13:16:00,
2013-08-25 09:21:00,73.2,61.2,30.40,ESE,112,0.0,0.0,66,0.00,,,0.00,WUHU21623XXSP,2013-08-25 13:21:00,
2013-08-25 09:26:00,73.8,61.2,30.39,ESE,112,0.0,0.0,65,0.00,,,0.00,WUHU21623XXSP,2013-08-25 13:26:00,
2013-08-25 09:31:00,74.3,61.7,30.39,SE,135,0.0,0.0,65,0.00,,,0.00,WUHU21623XXSP,2013-08-25 13:31:00,
2013-08-25 09:36:00,74.1,61.6,30.39,SE,135,0.0,0.0,65,0.00,,,0.00,WUHU21623XXSP,2013-08-25 13:36:00,
2013-08-25 09:41:00,74.1,61.6,30.39,SE,135,0.0,0.0,64,0.00,,,0.00,WUHU21623XXSP,2013-08-25 13:41:00,
2013-08-25 09:46:00,73.9,61.6,30.39,SE,135,0.0,0.0,65,0.00,,,0.00,WUHU21623XXSP,2013-08-25 13:46:00,
2013-08-25 09:51:00,73.8,61.2,30.39,SSE,157,0.0,0.0,65,0.00,,,0.00,WUHU21623XXSP,2013-08-25 13:51:00,
2013-08-25 09:56:00,73.6,61.1,30.39,SSE,157,0.0,0.0,65,0.00,,,0.00,WUHU21623XXSP,2013-08-25 13:56:00,
2013-08-25 10:01:00,73.8,61.2,30.39,SSW,202,0.0,0.0,65,0.00,,,0.00,WUHU21623XXSP,2013-08-25 14:01:00,
2013-08-25 10:06:00,73.8,60.8,30.39,WSW,247,0.0,0.0,64,0.00,,,0.00,WUHU21623XXSP,2013-08-25 14:06:00,
2013-08-25 10:11:00,73.8,60.8,30.39,SSE,157,0.0,0.0,64,0.00,,,0.00,WUHU21623XXSP,2013-08-25 14:11:00,
2013-08-25 10:16:00,73.9,60.9,30.39,SW,225,0.0,0.0,64,0.00,,,0.00,WUHU21623XXSP,2013-08-25 14:16:00,
2013-08-25 10:21:00,74.1,61.1,30.39,SW,225,0.0,0.0,64,0.00,,,0.00,WUHU21623XXSP,2013-08-25 14:21:00,
2013-08-25 10:26:00,74.3,60.9,30.39,SW,225,0.0,0.0,63,0.00,,,0.00,WUHU21623XXSP,2013-08-25 14:26:00,
2013-08-25 10:31:00,74.7,61.2,30.39,South,180,0.0,0.0,63,0.00,,,0.00,WUHU21623XXSP,2013-08-25 14:31:00,
2013-08-25 10:36:00,74.8,60.9,30.39,SSW,202,0.0,0.0,62,0.00,,,0.00,WUHU21623XXSP,2013-08-25 14:36:00,
2013-08-25 10:41:00,75.0,60.7,30.39,SSW,202,0.0,0.0,61,0.00,,,0.00,WUHU21623XXSP,2013-08-25 14:41:00,
2013-08-25 10:46:00,75.6,61.2,30.39,South,180,0.0,0.0,61,0.00,,,0.00,WUHU21623XXSP,2013-08-25 14:46:00,
2013-08-25 10:51:00,75.4,60.6,30.39,SSE,157,0.0,0.0,60,0.00,,,0.00,WUHU21623XXSP,2013-08-25 14:51:00,
2013-08-25 10:56:00,75.4,60.6,30.40,South,180,0.0,0.0,60,0.00,,,0.00,WUHU21623XXSP,2013-08-25 14:56:00,
2013-08-25 11:01:00,75.6,60.8,30.39,SSW,202,0.0,0.0,60,0.00,,,0.00,WUHU21623XXSP,2013-08-25 15:01:00,
2013-08-25 11:06:00,75.7,60.9,30.39,WSW,247,0.0,0.0,60,0.00,,,0.00,WUHU21623XXSP,2013-08-25 15:06:00,
2013-08-25 11:11:00,75.9,60.6,30.39,WSW,247,0.0,0.0,59,0.00,,,0.00,WUHU21623XXSP,2013-08-25 15:11:00,
2013-08-25 11:16:00,75.9,60.1,30.38,WSW,247,0.0,0.0,58,0.00,,,0.00,WUHU21623XXSP,2013-08-25 15:16:00,
2013-08-25 11:21:00,76.3,60.9,30.39,West,270,0.0,0.0,59,0.00,,,0.00,WUHU21623XXSP,2013-08-25 15:21:00,
2013-08-25 11:26:00,76.5,61.1,30.39,South,180,0.0,0.0,59,0.00,,,0.00,WUHU21623XXSP,2013-08-25 15:26:00,
2013-08-25 11:31:00,76.8,61.4,30.39,South,180,0.0,0.0,59,0.00,,,0.00,WUHU21623XXSP,2013-08-25 15:31:00,
2013-08-25 11:36:00,76.8,60.9,30.39,South,180,0.0,0.0,58,0.00,,,0.00,WUHU21623XXSP,2013-08-25 15:36:00,
2013-08-25 11:41:00,76.8,60.9,30.39,SW,225,0.0,0.0,58,0.00,,,0.00,WUHU21623XXSP,2013-08-25 15:41:00,
2013-08-25 11:46:00,77.0,61.6,30.39,WNW,292,0.0,0.0,59,0.00,,,0.00,WUHU21623XXSP,2013-08-25 15:46:00,
2013-08-25 11:51:00,77.4,61.4,30.39,West,270,0.0,0.0,58,0.00,,,0.00,WUHU21623XXSP,2013-08-25 15:51:00,
2013-08-25 11:56:00,77.5,62.1,30.38,West,270,0.0,0.0,59,0.00,,,0.00,WUHU21623XXSP,2013-08-25 15:56:00,
2013-08-25 12:01:00,78.1,61.6,30.39,SSE,157,0.0,0.0,57,0.00,,,0.00,WUHU21623XXSP,2013-08-25 16:01:00,
2013-08-25 12:06:00,78.6,62.1,30.39,SW,225,0.0,0.0,57,0.00,,,0.00,WUHU21623XXSP,2013-08-25 16:06:00,
2013-08-25 12:11:00,78.6,61.1,30.38,SSW,202,0.0,0.0,55,0.00,,,0.00,WUHU21623XXSP,2013-08-25 16:11:00,
2013-08-25 12:16:00,79.2,62.1,30.38,SSW,202,0.0,0.0,56,0.00,,,0.00,WUHU21623XXSP,2013-08-25 16:16:00,
2013-08-25 12:21:00,79.7,62.1,30.38,SSW,202,0.0,0.0,55,0.00,,,0.00,WUHU21623XXSP,2013-08-25 16:21:00,
2013-08-25 12:26:00,80.4,63.2,30.39,West,270,0.0,0.0,56,0.00,,,0.00,WUHU21623XXSP,2013-08-25 16:26:00,
2013-08-25 12:31:00,80.4,62.2,30.38,NW,315,0.0,0.0,54,0.00,,,0.00,WUHU21623XXSP,2013-08-25 16:31:00,
2013-08-25 12:36:00,80.8,62.5,30.38,NW,315,0.0,0.0,54,0.00,,,0.00,WUHU21623XXSP,2013-08-25 16:36:00,
2013-08-25 12:41:00,81.1,62.3,30.38,West,270,0.0,0.0,53,0.00,,,0.00,WUHU21623XXSP,2013-08-25 16:41:00,
2013-08-25 12:46:00,81.1,61.8,30.38,WSW,247,0.0,0.0,52,0.00,,,0.00,WUHU21623XXSP,2013-08-25 16:46:00,
2013-08-25 12:51:00,81.5,62.1,30.38,SSE,157,0.0,0.0,52,0.00,,,0.00,WUHU21623XXSP,2013-08-25 16:51:00,
2013-08-25 12:56:00,81.7,62.3,30.37,South,180,0.0,0.0,52,0.00,,,0.00,WUHU21623XXSP,2013-08-25 16:56:00,
2013-08-25 13:01:00,82.0,62.6,30.37,South,180,0.0,0.0,52,0.00,,,0.00,WUHU21623XXSP,2013-08-25 17:01:00,
2013-08-25 13:06:00,82.0,62.1,30.37,WNW,292,0.0,0.0,51,0.00,,,0.00,WUHU21623XXSP,2013-08-25 17:06:00,
2013-08-25 13:11:00,81.7,62.6,30.37,WNW,292,0.0,0.0,53,0.00,,,0.00,WUHU21623XXSP,2013-08-25 17:11:00,
2013-08-25 13:16:00,82.0,62.6,30.37,SSW,202,0.0,0.0,52,0.00,,,0.00,WUHU21623XXSP,2013-08-25 17:16:00,
2013-08-25 13:21:00,82.2,62.8,30.37,SW,225,0.0,0.0,52,0.00,,,0.00,WUHU21623XXSP,2013-08-25 17:21:00,
2013-08-25 13:26:00,82.6,63.1,30.37,WSW,247,0.0,0.0,52,0.00,,,0.00,WUHU21623XXSP,2013-08-25 17:26:00,
2013-08-25 13:31:00,82.8,63.8,30.36,SW,225,0.0,0.0,53,0.00,,,0.00,WUHU21623XXSP,2013-08-25 17:31:00,
2013-08-25 13:36:00,82.2,62.2,30.36,WNW,292,0.0,0.0,51,0.00,,,0.00,WUHU21623XXSP,2013-08-25 17:36:00,
2013-08-25 13:41:00,82.0,62.8,30.36,West,270,0.0,0.0,53,0.00,,,0.00,WUHU21623XXSP,2013-08-25 17:41:00,
2013-08-25 13:46:00,82.2,62.8,30.36,SSW,202,0.0,0.0,52,0.00,,,0.00,WUHU21623XXSP,2013-08-25 17:46:00,
2013-08-25 13:51:00,82.2,62.8,30.36,SW,225,0.0,0.0,52,0.00,,,0.00,WUHU21623XXSP,2013-08-25 17:51:00,
2013-08-25 13:56:00,82.9,63.5,30.35,WSW,247,0.0,0.0,52,0.00,,,0.00,WUHU21623XXSP,2013-08-25 17:56:00,
2013-08-25 14:01:00,83.1,63.6,30.35,West,270,0.0,0.0,52,0.00,,,0.00,WUHU21623XXSP,2013-08-25 18:01:00,
2013-08-25 14:06:00,83.5,63.5,30.35,WNW,292,0.0,0.0,51,0.00,,,0.00,WUHU21623XXSP,2013-08-25 18:06:00,
2013-08-25 14:11:00,82.9,63.5,30.35,South,180,0.0,0.0,52,0.00,,,0.00,WUHU21623XXSP,2013-08-25 18:11:00,
2013-08-25 14:16:00,83.3,63.6,30.34,SSE,157,0.0,0.0,51,0.00,,,0.00,WUHU21623XXSP,2013-08-25 18:16:00,
2013-08-25 14:21:00,83.5,63.3,30.34,SSW,202,0.0,0.0,51,0.00,,,0.00,WUHU21623XXSP,2013-08-25 18:21:00,
2013-08-25 14:26:00,83.5,63.5,30.34,SSW,202,0.0,0.0,51,0.00,,,0.00,WUHU21623XXSP,2013-08-25 18:26:00,
2013-08-25 14:31:00,83.3,62.8,30.34,SE,135,0.0,0.0,50,0.00,,,0.00,WUHU21623XXSP,2013-08-25 18:31:00,
2013-08-25 14:36:00,82.6,62.1,30.34,SE,135,0.0,0.0,50,0.00,,,0.00,WUHU21623XXSP,2013-08-25 18:36:00,
2013-08-25 14:41:00,82.2,62.2,30.34,WNW,292,0.0,0.0,51,0.00,,,0.00,WUHU21623XXSP,2013-08-25 18:41:00,
2013-08-25 14:46:00,82.6,62.4,30.34,WNW,292,0.0,0.0,49,0.00,,,0.00,WUHU21623XXSP,2013-08-25 18:46:00,
2013-08-25 14:51:00,82.8,61.0,30.34,WNW,292,0.0,0.0,48,0.00,,,0.00,WUHU21623XXSP,2013-08-25 18:51:00,
2013-08-25 14:56:00,82.6,61.4,30.34,SW,225,0.0,0.0,49,0.00,,,0.00,WUHU21623XXSP,2013-08-25 18:56:00,
2013-08-25 15:01:00,82.6,60.8,30.34,SSW,202,0.0,0.0,48,0.00,,,0.00,WUHU21623XXSP,2013-08-25 19:01:00,
2013-08-25 15:06:00,82.6,60.8,30.34,WNW,292,0.0,0.0,48,0.00,,,0.00,WUHU21623XXSP,2013-08-25 19:06:00,
2013-08-25 15:11:00,82.6,60.2,30.34,WSW,247,0.0,0.0,47,0.00,,,0.00,WUHU21623XXSP,2013-08-25 19:11:00,
2013-08-25 15:16:00,82.2,60.5,30.34,WSW,247,0.0,0.0,48,0.00,,,0.00,WUHU21623XXSP,2013-08-25 19:16:00,
2013-08-25 15:21:00,82.4,60.7,30.33,West,270,0.0,0.0,48,0.00,,,0.00,WUHU21623XXSP,2013-08-25 19:21:00,
2013-08-25 15:26:00,82.2,60.5,30.33,SSW,202,0.0,0.0,48,0.00,,,0.00,WUHU21623XXSP,2013-08-25 19:26:00,
2013-08-25 15:31:00,82.0,60.3,30.33,SSW,202,0.0,0.0,48,0.00,,,0.00,WUHU21623XXSP,2013-08-25 19:31:00,
2013-08-25 15:36:00,81.9,60.2,30.33,West,270,0.0,0.0,48,0.00,,,0.00,WUHU21623XXSP,2013-08-25 19:36:00,
2013-08-25 15:41:00,81.7,60.0,30.33,WNW,292,0.0,0.0,48,0.00,,,0.00,WUHU21623XXSP,2013-08-25 19:41:00,
2013-08-25 15:46:00,81.3,60.3,30.33,WNW,292,0.0,0.0,49,0.00,,,0.00,WUHU21623XXSP,2013-08-25 19:46:00,
2013-08-25 15:51:00,81.0,61.1,30.33,WNW,292,0.0,0.0,51,0.00,,,0.00,WUHU21623XXSP,2013-08-25 19:51:00,
2013-08-25 15:56:00,80.2,59.9,30.32,NW,315,0.0,0.0,50,0.00,,,0.00,WUHU21623XXSP,2013-08-25 19:56:00,
2013-08-25 16:01:00,80.2,59.9,30.32,SSW,202,0.0,0.0,50,0.00,,,0.00,WUHU21623XXSP,2013-08-25 20:01:00,
2013-08-25 16:06:00,80.2,59.9,30.32,WSW,247,0.0,0.0,50,0.00,,,0.00,WUHU21623XXSP,2013-08-25 20:06:00,
2013-08-25 16:11:00,80.4,60.1,30.32,WSW,247,0.0,0.0,50,0.00,,,0.00,WUHU21623XXSP,2013-08-25 20:11:00,
2013-08-25 16:16:00,80.1,60.3,30.32,SW,225,0.0,0.0,51,0.00,,,0.00,WUHU21623XXSP,2013-08-25 20:16:00,
2013-08-25 16:21:00,79.9,59.6,30.32,WSW,247,0.0,0.0,50,0.00,,,0.00,WUHU21623XXSP,2013-08-25 20:21:00,
2013-08-25 16:26:00,80.1,59.0,30.32,West,270,0.0,0.0,50,0.00,,,0.00,WUHU21623XXSP,2013-08-25 20:26:00,
2013-08-25 16:31:00,80.2,59.9,30.31,West,270,0.0,0.0,50,0.00,,,0.00,WUHU21623XXSP,2013-08-25 20:31:00,
2013-08-25 16:36:00,79.9,59.3,30.32,SW,225,0.0,0.0,49,0.00,,,0.00,WUHU21623XXSP,2013-08-25 20:36:00,
2013-08-25 16:41:00,79.9,59.0,30.31,SSW,202,0.0,0.0,49,0.00,,,0.00,WUHU21623XXSP,2013-08-25 20:41:00,
2013-08-25 16:46:00,79.7,59.5,30.31,SSW,202,0.0,0.0,50,0.00,,,0.00,WUHU21623XXSP,2013-08-25 20:46:00,
2013-08-25 16:51:00,79.5,60.0,30.31,SSW,202,0.0,0.0,50,0.00,,,0.00,WUHU21623XXSP,2013-08-25 20:51:00,
2013-08-25 16:56:00,79.7,60.0,30.31,WSW,247,0.0,0.0,51,0.00,,,0.00,WUHU21623XXSP,2013-08-25 20:56:00,
2013-08-25 17:01:00,79.9,59.6,30.31,SW,225,0.0,0.0,50,0.00,,,0.00,WUHU21623XXSP,2013-08-25 21:01:00,
2013-08-25 17:06:00,80.1,60.3,30.31,SW,225,0.0,0.0,51,0.00,,,0.00,WUHU21623XXSP,2013-08-25 21:06:00,
2013-08-25 17:11:00,80.2,59.9,30.31,SW,225,0.0,0.0,50,0.00,,,0.00,WUHU21623XXSP,2013-08-25 21:11:00,
2013-08-25 17:16:00,80.2,59.9,30.31,West,270,0.0,0.0,50,0.00,,,0.00,WUHU21623XXSP,2013-08-25 21:16:00,
2013-08-25 17:21:00,80.2,59.9,30.31,West,270,0.0,0.0,50,0.00,,,0.00,WUHU21623XXSP,2013-08-25 21:21:00,
2013-08-25 17:26:00,80.2,59.9,30.31,West,270,0.0,0.0,50,0.00,,,0.00,WUHU21623XXSP,2013-08-25 21:26:00,
2013-08-25 17:31:00,80.2,59.9,30.30,West,270,0.0,0.0,50,0.00,,,0.00,WUHU21623XXSP,2013-08-25 21:31:00,
2013-08-25 17:36:00,80.2,59.9,30.30,West,270,0.0,0.0,50,0.00,,,0.00,WUHU21623XXSP,2013-08-25 21:36:00,
2013-08-25 17:41:00,79.9,59.6,30.29,West,270,0.0,0.0,50,0.00,,,0.00,WUHU21623XXSP,2013-08-25 21:41:00,
2013-08-25 17:46:00,79.9,59.6,30.30,SW,225,0.0,0.0,50,0.00,,,0.00,WUHU21623XXSP,2013-08-25 21:46:00,
2013-08-25 17:51:00,79.9,60.1,30.30,SW,225,0.0,0.0,51,0.00,,,0.00,WUHU21623XXSP,2013-08-25 21:51:00,
2013-08-25 17:56:00,79.7,60.0,30.30,SW,225,0.0,0.0,51,0.00,,,0.00,WUHU21623XXSP,2013-08-25 21:56:00,
2013-08-25 18:01:00,79.5,59.8,30.30,SW,225,0.0,0.0,51,0.00,,,0.00,WUHU21623XXSP,2013-08-25 22:01:00,
2013-08-25 18:06:00,79.5,59.8,30.30,SW,225,0.0,0.0,51,0.00,,,0.00,WUHU21623XXSP,2013-08-25 22:06:00,
2013-08-25 18:11:00,79.5,59.8,30.29,SW,225,0.0,0.0,51,0.00,,,0.00,WUHU21623XXSP,2013-08-25 22:11:00,
2013-08-25 18:16:00,79.7,60.0,30.29,SW,225,0.0,0.0,51,0.00,,,0.00,WUHU21623XXSP,2013-08-25 22:16:00,
2013-08-25 18:21:00,79.7,60.0,30.29,SW,225,0.0,0.0,51,0.00,,,0.00,WUHU21623XXSP,2013-08-25 22:21:00,
2013-08-25 18:26:00,79.7,60.0,30.29,SW,225,0.0,0.0,51,0.00,,,0.00,WUHU21623XXSP,2013-08-25 22:26:00,
2013-08-25 18:31:00,80.1,60.3,30.29,SW,225,0.0,0.0,51,0.00,,,0.00,WUHU21623XXSP,2013-08-25 22:31:00,
2013-08-25 18:36:00,79.9,60.1,30.29,SW,225,0.0,0.0,51,0.00,,,0.00,WUHU21623XXSP,2013-08-25 22:36:00,
2013-08-25 18:41:00,79.9,60.7,30.29,SSW,202,0.0,0.0,52,0.00,,,0.00,WUHU21623XXSP,2013-08-25 22:41:00,
2013-08-25 18:46:00,79.7,60.0,30.29,SSW,202,0.0,0.0,51,0.00,,,0.00,WUHU21623XXSP,2013-08-25 22:46:00,
2013-08-25 18:51:00,79.5,60.3,30.28,SSW,202,0.0,0.0,52,0.00,,,0.00,WUHU21623XXSP,2013-08-25 22:51:00,
2013-08-25 18:56:00,79.5,60.3,30.28,SSW,202,0.0,0.0,52,0.00,,,0.00,WUHU21623XXSP,2013-08-25 22:56:00,
2013-08-25 19:01:00,79.2,60.2,30.28,SSW,202,0.0,0.0,52,0.00,,,0.00,WUHU21623XXSP,2013-08-25 23:01:00,
2013-08-25 19:06:00,79.0,60.4,30.29,SSW,202,0.0,0.0,53,0.00,,,0.00,WUHU21623XXSP,2013-08-25 23:06:00,
2013-08-25 19:11:00,78.6,60.0,30.28,SSW,202,0.0,0.0,53,0.00,,,0.00,WUHU21623XXSP,2013-08-25 23:11:00,
2013-08-25 19:16:00,78.6,60.5,30.28,SSW,202,0.0,0.0,54,0.00,,,0.00,WUHU21623XXSP,2013-08-25 23:16:00,
2013-08-25 19:21:00,78.3,60.2,30.28,SSW,202,0.0,0.0,54,0.00,,,0.00,WUHU21623XXSP,2013-08-25 23:21:00,
2013-08-25 19:26:00,78.1,60.0,30.28,SSW,202,0.0,0.0,54,0.00,,,0.00,WUHU21623XXSP,2013-08-25 23:26:00,
2013-08-25 19:31:00,77.7,59.7,30.28,SSW,202,0.0,0.0,54,0.00,,,0.00,WUHU21623XXSP,2013-08-25 23:31:00,
2013-08-25 19:36:00,77.5,60.0,30.28,SSW,202,0.0,0.0,55,0.00,,,0.00,WUHU21623XXSP,2013-08-25 23:36:00,
2013-08-25 19:41:00,77.2,59.7,30.27,SSW,202,0.0,0.0,55,0.00,,,0.00,WUHU21623XXSP,2013-08-25 23:41:00,
2013-08-25 19:46:00,77.2,60.2,30.27,SSW,202,0.0,0.0,56,0.00,,,0.00,WUHU21623XXSP,2013-08-25 23:46:00,
2013-08-25 19:51:00,76.8,60.4,30.27,SSW,202,0.0,0.0,57,0.00,,,0.00,WUHU21623XXSP,2013-08-25 23:51:00,
2013-08-25 19:56:00,76.5,60.6,30.27,SSW,202,0.0,0.0,58,0.00,,,0.00,WUHU21623XXSP,2013-08-25 23:56:00,
2013-08-25 20:01:00,76.1,60.9,30.26,SSW,202,0.0,0.0,59,0.00,,,0.00,WUHU21623XXSP,2013-08-26 00:01:00,
2013-08-25 20:06:00,75.7,60.4,30.27,SSW,202,0.0,0.0,59,0.00,,,0.00,WUHU21623XXSP,2013-08-26 00:06:00,
2013-08-25 20:11:00,75.0,60.3,30.27,SSW,202,0.0,0.0,60,0.00,,,0.00,WUHU21623XXSP,2013-08-26 00:11:00,
2013-08-25 20:16:00,74.8,60.5,30.28,SSW,202,0.0,0.0,61,0.00,,,0.00,WUHU21623XXSP,2013-08-26 00:16:00,
2013-08-25 20:21:00,74.7,60.5,30.28,SSW,202,0.0,0.0,61,0.00,,,0.00,WUHU21623XXSP,2013-08-26 00:21:00,
2013-08-25 20:26:00,74.3,60.2,30.28,SSW,202,0.0,0.0,61,0.00,,,0.00,WUHU21623XXSP,2013-08-26 00:26:00,
2013-08-25 20:31:00,74.1,60.0,30.28,SSW,202,0.0,0.0,61,0.00,,,0.00,WUHU21623XXSP,2013-08-26 00:31:00,
2013-08-25 20:36:00,74.1,59.8,30.28,SSW,202,0.0,0.0,62,0.00,,,0.00,WUHU21623XXSP,2013-08-26 00:36:00,
2013-08-25 20:41:00,73.8,60.3,30.28,SSW,202,0.0,0.0,63,0.00,,,0.00,WUHU21623XXSP,2013-08-26 00:41:00,
2013-08-25 20:46:00,73.4,60.2,30.28,SSW,202,0.0,0.0,64,0.00,,,0.00,WUHU21623XXSP,2013-08-26 00:46:00,
2013-08-25 20:51:00,73.0,60.1,30.29,SSW,202,0.0,0.0,64,0.00,,,0.00,WUHU21623XXSP,2013-08-26 00:51:00,
2013-08-25 20:56:00,72.5,60.2,30.29,SSW,202,0.0,0.0,65,0.00,,,0.00,WUHU21623XXSP,2013-08-26 00:56:00,
2013-08-25 21:01:00,72.3,60.3,30.29,SSW,202,0.0,0.0,66,0.00,,,0.00,WUHU21623XXSP,2013-08-26 01:01:00,
2013-08-25 21:06:00,72.0,60.0,30.29,SSW,202,0.0,0.0,66,0.00,,,0.00,WUHU21623XXSP,2013-08-26 01:06:00,
2013-08-25 21:11:00,71.4,59.9,30.29,SSW,202,0.0,0.0,67,0.00,,,0.00,WUHU21623XXSP,2013-08-26 01:11:00,
2013-08-25 21:16:00,71.2,59.7,30.29,SSW,202,0.0,0.0,67,0.00,,,0.00,WUHU21623XXSP,2013-08-26 01:16:00,
2013-08-25 21:21:00,71.2,59.7,30.29,SSW,202,0.0,0.0,67,0.00,,,0.00,WUHU21623XXSP,2013-08-26 01:21:00,
2013-08-25 21:26:00,70.9,59.3,30.30,SSW,202,0.0,0.0,67,0.00,,,0.00,WUHU21623XXSP,2013-08-26 01:26:00,
2013-08-25 21:31:00,70.5,59.4,30.29,SSW,202,0.0,0.0,68,0.00,,,0.00,WUHU21623XXSP,2013-08-26 01:31:00,
2013-08-25 21:36:00,70.3,59.2,30.29,SSW,202,0.0,0.0,68,0.00,,,0.00,WUHU21623XXSP,2013-08-26 01:36:00,
2013-08-25 21:41:00,69.8,59.1,30.30,SSW,202,0.0,0.0,69,0.00,,,0.00,WUHU21623XXSP,2013-08-26 01:41:00,
2013-08-25 21:46:00,69.6,58.9,30.30,SSW,202,0.0,0.0,69,0.00,,,0.00,WUHU21623XXSP,2013-08-26 01:46:00,
2013-08-25 21:51:00,69.4,58.8,30.30,SSW,202,0.0,0.0,69,0.00,,,0.00,WUHU21623XXSP,2013-08-26 01:51:00,
2013-08-25 21:56:00,69.1,58.5,30.30,SSW,202,0.0,0.0,69,0.00,,,0.00,WUHU21623XXSP,2013-08-26 01:56:00,
2013-08-25 22:01:00,68.7,58.6,30.30,SSW,202,0.0,0.0,70,0.00,,,0.00,WUHU21623XXSP,2013-08-26 02:01:00,
2013-08-25 22:06:00,68.7,58.6,30.30,SSW,202,0.0,0.0,70,0.00,,,0.00,WUHU21623XXSP,2013-08-26 02:06:00,
2013-08-25 22:11:00,68.5,58.4,30.30,SSW,202,0.0,0.0,70,0.00,,,0.00,WUHU21623XXSP,2013-08-26 02:11:00,
2013-08-25 22:16:00,68.2,58.5,30.30,SSW,202,0.0,0.0,71,0.00,,,0.00,WUHU21623XXSP,2013-08-26 02:16:00,
2013-08-25 22:21:00,68.0,58.5,30.30,SSW,202,0.0,0.0,71,0.00,,,0.00,WUHU21623XXSP,2013-08-26 02:21:00,
2013-08-25 22:26:00,67.8,58.5,30.30,SSW,202,0.0,0.0,72,0.00,,,0.00,WUHU21623XXSP,2013-08-26 02:26:00,
2013-08-25 22:31:00,67.8,58.5,30.30,SSW,202,0.0,0.0,72,0.00,,,0.00,WUHU21623XXSP,2013-08-26 02:31:00,
2013-08-25 22:36:00,67.6,58.3,30.30,SSW,202,0.0,0.0,72,0.00,,,0.00,WUHU21623XXSP,2013-08-26 02:36:00,
2013-08-25 22:41:00,67.5,58.1,30.30,SSW,202,0.0,0.0,72,0.00,,,0.00,WUHU21623XXSP,2013-08-26 02:41:00,
2013-08-25 22:46:00,67.3,58.0,30.30,SSW,202,0.0,0.0,72,0.00,,,0.00,WUHU21623XXSP,2013-08-26 02:46:00,
2013-08-25 22:51:00,66.9,57.6,30.30,SSW,202,0.0,0.0,72,0.00,,,0.00,WUHU21623XXSP,2013-08-26 02:51:00,
2013-08-25 22:56:00,66.7,57.8,30.31,SSW,202,0.0,0.0,73,0.00,,,0.00,WUHU21623XXSP,2013-08-26 02:56:00,
2013-08-25 23:01:00,66.6,57.6,30.31,SSW,202,0.0,0.0,73,0.00,,,0.00,WUHU21623XXSP,2013-08-26 03:01:00,
2013-08-25 23:06:00,66.4,57.4,30.31,SSW,202,0.0,0.0,73,0.00,,,0.00,WUHU21623XXSP,2013-08-26 03:06:00,
2013-08-25 23:11:00,66.2,57.3,30.31,SSW,202,0.0,0.0,73,0.00,,,0.00,WUHU21623XXSP,2013-08-26 03:11:00,
2013-08-25 23:16:00,66.0,57.1,30.31,SSW,202,0.0,0.0,73,0.00,,,0.00,WUHU21623XXSP,2013-08-26 03:16:00,
2013-08-25 23:21:00,66.0,57.5,30.31,SSW,202,0.0,0.0,74,0.00,,,0.00,WUHU21623XXSP,2013-08-26 03:21:00,
2013-08-25 23:26:00,66.0,57.5,30.30,SSW,202,0.0,0.0,74,0.00,,,0.00,WUHU21623XXSP,2013-08-26 03:26:00,
2013-08-25 23:31:00,65.8,57.3,30.30,SSW,202,0.0,0.0,74,0.00,,,0.00,WUHU21623XXSP,2013-08-26 03:31:00,
2013-08-25 23:36:00,65.7,57.5,30.30,SSW,202,0.0,0.0,75,0.00,,,0.00,WUHU21623XXSP,2013-08-26 03:36:00,
2013-08-25 23:41:00,65.5,57.3,30.30,SSW,202,0.0,0.0,75,0.00,,,0.00,WUHU21623XXSP,2013-08-26 03:41:00,
2013-08-25 23:46:00,65.3,57.3,30.30,SSW,202,0.0,0.0,75,0.00,,,0.00,WUHU21623XXSP,2013-08-26 03:46:00,
2013-08-25 23:51:00,65.3,57.1,30.30,SSW,202,0.0,0.0,75,0.00,,,0.00,WUHU21623XXSP,2013-08-26 03:51:00,
2013-08-25 23:56:00,65.1,57.3,30.30,SSW,202,0.0,0.0,76,0.00,,,0.00,WUHU21623XXSP,2013-08-26 03:56:00,